DW7572 Weather Reports


time (UTC)temp
C
wind
direction
speed
KPH
gust
KPH
rain 1hr
cm
rain 24hr
cm
rain mn
cm
humidity
%
barometer
mb
20260903045517 23 113 4.8 9.7 0.00 2.03 1.98 94 1010.8
20260903044518 23 135 4.8 8.0 0.00 2.06 1.98 94 1010.8
20260903043518 23 135 4.8 11.3 0.00 2.06 1.98 94 1010.9
20260903042517 23 113 6.4 11.3 0.00 2.06 1.98 94 1010.9
20260903041517 23 113 4.8 8.0 0.00 2.06 1.98 95 1010.8
20260903040518 23 113 4.8 6.4 0.00 2.06 1.98 95 1010.9
20260903035518 23 113 4.8 6.4 0.00 2.06 1.98 94 1010.7
20260903034518 23 113 3.2 6.4 0.00 2.06 1.98 94 1010.8
20260903033537 23 113 3.2 6.4 0.00 2.06 1.98 94 1011.1
20260903032518 23 113 3.2 9.7 0.00 2.06 1.98 93 1011.0
20260903031517 23 135 4.8 6.4 0.00 2.06 1.98 93 1011.1
20260903030518 23 135 3.2 4.8 0.00 2.06 1.98 93 1011.0
20260903025518 23 135 3.2 6.4 0.00 2.06 1.98 93 1011.0
20260903024517 23 135 3.2 6.4 0.00 2.06 1.98 92 1010.8
20260903023517 23 135 3.2 6.4 0.00 2.06 1.98 92 1010.8
20260903022517 23 135 3.2 4.8 0.00 2.06 1.98 92 1010.8
20260903021537 23 135 3.2 4.8 0.00 2.06 1.98 91 1010.8
20260903020517 24 135 3.2 6.4 0.00 2.06 1.98 91 1010.9
20260903015517 24 135 4.8 6.4 0.00 2.06 1.98 91 1010.7
20260903014517 24 135 3.2 4.8 0.00 2.06 1.98 91 1010.6
20260903013537 24 135 3.2 4.8 0.00 2.06 1.98 90 1010.6
20260903012517 25 135 3.2 4.8 0.00 2.06 1.98 90 1010.4
20260903011517 25 135 4.8 6.4 0.00 2.06 1.98 89 1010.3
20260903010517 25 135 3.2 4.8 0.00 2.06 1.98 87 1010.3
20260903005517 25 135 4.8 6.4 0.00 2.06 1.98 87 1010.1
20260903004517 26 135 3.2 4.8 0.00 2.06 1.98 85 1010.4
20260903003537 26 135 3.2 4.8 0.00 2.06 1.98 83 1010.5
20260903002537 27 135 3.2 6.4 0.00 2.06 1.98 80 1010.5
20260903001517 27 135 4.8 6.4 0.00 2.06 1.98 79 1010.6
20260903000517 28 135 4.8 11.3 0.00 2.06 1.98 77 1010.7
20260902235517 28 135 4.8 8.0 0.00 2.06 1.98 76 1010.8
20260902234557 28 135 4.8 11.3 0.00 2.06 1.98 75 1010.6
20260902233537 29 135 4.8 11.3 0.00 2.06 1.98 73 1010.6
20260902232516 29 135 8.0 11.3 0.00 2.06 1.98 73 1010.6
20260902231516 30 135 6.4 12.9 0.00 2.06 1.98 71 1010.7
20260902230517 30 158 6.4 11.3 0.00 2.06 1.98 71 1010.8
20260902225516 30 135 8.0 14.5 0.00 2.06 1.98 68 1010.8
20260902224517 30 135 6.4 14.5 0.00 2.06 1.98 69 1010.8
20260902223516 30 158 8.0 12.9 0.00 2.06 1.98 66 1010.8
20260902222516 30 180 9.7 16.1 0.00 2.06 1.98 67 1010.9
20260902221516 31 158 9.7 17.7 0.00 2.06 1.98 66 1010.9
20260902220516 31 180 6.4 12.9 0.00 2.06 1.98 65 1011.0
20260902215516 31 180 11.3 16.1 0.00 2.06 1.98 63 1011.0
20260902214516 31 158 11.3 17.7 0.00 2.06 1.98 63 1011.0
20260902213516 31 203 9.7 16.1 0.00 2.06 1.98 63 1011.0
20260902212517 31 180 9.7 16.1 0.00 2.06 1.98 65 1011.1
20260902211516 31 158 8.0 16.1 0.00 2.06 1.98 70 1011.3
20260902210516 31 113 3.2 9.7 0.00 2.06 1.98 71 1011.2
20260902205516 30 135 6.4 11.3 0.00 2.06 1.98 71 1011.4
20260902204517 30 135 3.2 6.4 0.00 2.06 1.98 71 1011.4
20260902203516 30 158 6.4 12.9 0.00 2.06 1.98 71 1011.6
20260902202516 30 180 3.2 9.7 0.00 2.06 1.98 70 1011.5
20260902201516 30 180 8.0 14.5 0.00 2.06 1.98 72 1011.6
20260902200516 29 225 1.6 4.8 0.00 2.06 1.98 72 1011.6
20260902195516 29 158 6.4 9.7 0.00 2.06 1.98 73 1011.9
20260902194516 30 203 4.8 8.0 0.00 2.06 1.98 71 1012.0
20260902193516 29 180 3.2 4.8 0.00 2.06 1.98 72 1012.1
20260902192516 28 225 3.2 9.7 0.00 2.06 1.98 72 1012.0
20260902191516 28 135 4.8 11.3 0.00 2.06 1.98 72 1012.1
20260902190557 28 158 1.6 4.8 0.00 2.06 1.98 75 1012.1
20260902185517 28 158 4.8 8.0 0.00 2.06 1.98 74 1012.2
20260902184516 28 203 3.2 6.4 0.00 2.06 1.98 77 1012.2
20260902183517 28 180 4.8 9.7 0.00 2.06 1.98 76 1012.4
20260902182516 27 158 3.2 4.8 0.00 2.06 1.98 77 1012.5
20260902181517 28 135 6.4 12.9 0.00 2.06 1.98 75 1012.6
20260902180516 27 90 3.2 11.3 0.00 2.06 1.98 74 1012.6
20260902175516 27 158 6.4 19.3 0.00 2.06 1.98 77 1012.7
20260902174516 27 158 8.0 16.1 0.00 2.06 1.98 76 1013.0
20260902173517 27 113 4.8 9.7 0.00 2.06 1.98 78 1013.0
20260902172516 26 135 4.8 9.7 0.00 2.06 1.98 76 1013.3
20260902171516 26 135 1.6 4.8 0.00 2.06 1.98 80 1013.3
20260902170516 26 90 4.8 9.7 0.00 2.06 1.98 80 1013.1
20260902165515 26 45 6.4 9.7 0.00 2.06 1.98 81 1013.0
20260902164516 25 68 3.2 6.4 0.00 2.06 1.98 82 1013.1
20260902163516 25 90 3.2 8.0 0.00 2.06 1.98 82 1013.5
20260902162515 25 158 3.2 6.4 0.00 2.06 1.98 85 1013.6
20260902161556 24 180 6.4 9.7 0.00 2.06 1.98 85 1013.5
20260902160516 23 180 6.4 11.3 0.00 2.06 1.98 86 1013.7
20260902155515 23 180 4.8 8.0 0.00 2.06 1.98 87 1013.6
20260902154516 23 45 3.2 8.0 0.00 2.06 1.98 88 1013.5
20260902153515 22 45 1.6 6.4 0.00 2.06 1.98 89 1013.5
20260902152515 22 45 4.8 8.0 0.00 2.06 1.98 88 1013.6
20260902151536 22 45 4.8 8.0 0.00 2.06 1.98 90 1013.4
20260902150515 22 68 4.8 8.0 0.00 2.06 1.98 90 1013.2
20260902145516 22 90 3.2 6.4 0.00 2.06 1.98 89 1012.9
20260902144517 22 90 3.2 6.4 0.00 2.06 1.98 90 1012.8
20260902143517 22 113 4.8 9.7 0.00 2.06 1.98 92 1012.7
20260902142517 21 113 3.2 12.9 0.00 2.06 1.98 92 1012.8
20260902141517 21 90 4.8 9.7 0.00 2.06 1.98 94 1012.6
20260902140518 21 113 6.4 11.3 0.00 2.06 1.98 95 1012.8
20260902135517 21 113 8.0 14.5 0.00 2.06 1.98 96 1012.6
20260902134517 20 90 4.8 11.3 0.00 2.06 1.98 97 1012.5
20260902133517 20 90 4.8 9.7 0.00 2.06 1.98 98 1012.5
20260902132517 20 68 4.8 8.0 0.00 2.06 1.98 98 1012.6
20260902131517 19 90 4.8 9.7 0.00 2.06 1.98 98 1012.6
20260902130517 19 113 4.8 6.4 0.00 2.06 1.98 98 1012.8
20260902125518 18 0.0 3.2 0.00 2.06 1.98 98 1012.8
20260902124517 18 0.0 0.0 0.00 2.06 1.98 98 1012.8
20260902123517 18 0.0 0.0 0.00 2.06 1.98 98 1012.6
20260902122518 18 0.0 0.0 0.00 2.06 1.98 98 1012.5
20260902121537 18 0.0 0.0 0.00 2.06 1.98 98 1012.6
20260902120538 18 113 3.2 6.4 0.00 2.06 1.98 98 1012.3
20260902115517 18 113 1.6 4.8 0.00 2.06 1.98 98 1012.6
20260902114517 18 113 1.6 3.2 0.00 2.06 1.98 98 1012.4
20260902113517 18 113 1.6 4.8 0.00 2.06 1.98 98 1012.3
20260902112517 18 113 3.2 4.8 0.00 2.08 1.98 98 1012.4
20260902111517 18 113 3.2 6.4 0.00 2.08 1.98 97 1012.4
20260902110517 18 113 1.6 3.2 0.00 2.08 1.98 98 1012.3
20260902105538 18 113 3.2 4.8 0.00 2.08 1.98 98 1012.5
20260902104517 18 113 3.2 6.4 0.00 2.08 1.98 97 1012.5
20260902103538 18 113 4.8 9.7 0.00 2.08 1.98 97 1012.8
20260902102518 18 113 3.2 6.4 0.00 2.08 1.98 97 1013.1
20260902101557 18 113 3.2 6.4 0.00 2.08 1.98 97 1013.4
20260902100518 18 113 3.2 6.4 0.00 2.08 1.98 97 1013.4
20260902095538 18 135 3.2 6.4 0.00 2.08 1.98 97 1013.3
20260902094517 18 135 4.8 8.0 0.00 2.08 1.98 97 1013.4
20260902093517 18 135 3.2 4.8 0.00 2.08 1.98 97 1013.5
20260902092517 18 113 3.2 11.3 0.00 2.08 1.98 97 1013.0
20260902091516 18 158 6.4 9.7 0.00 2.08 1.98 97 1013.0
20260902090557 18 158 6.4 9.7 0.00 2.08 1.98 97 1012.9
20260902085517 18 180 6.4 12.9 0.00 2.08 1.98 97 1013.0
20260902084517 18 180 8.0 14.5 0.00 2.08 1.98 97 1013.5
20260902083517 18 203 8.0 11.3 0.00 2.08 1.98 97 1014.0
20260902082517 18 0.0 0.0 0.00 2.08 1.98 97 1013.2
20260902081516 18 0.0 0.0 0.00 2.08 1.98 97 1013.0
20260902080518 18 180 1.6 4.8 0.00 2.08 1.98 97 1013.0
20260902075517 18 180 4.8 8.0 0.00 2.08 1.98 97 1013.0
20260902074517 18 180 8.0 11.3 0.00 2.08 1.98 97 1013.0
20260902073516 19 180 6.4 12.9 0.03 2.08 1.98 97 1013.0
20260902072557 19 180 11.3 17.7 0.03 2.08 1.98 97 1012.7
20260902071516 19 45 6.4 17.7 0.03 2.08 1.98 97 1012.8
20260902070516 19 45 9.7 17.7 0.05 2.08 1.98 97 1011.6
20260902065516 19 45 9.7 14.5 0.05 2.08 1.98 97 1011.2
20260902064517 19 90 11.3 16.1 0.05 2.08 1.98 97 1010.9
20260902063517 19 68 12.9 20.9 0.05 2.06 1.96 96 1011.5
20260902062516 19 68 14.5 22.5 0.08 2.06 1.96 96 1011.7
20260902061516 19 45 14.5 20.9 0.41 2.06 1.96 96 1012.3
20260902060516 19 90 8.0 16.1 1.88 2.03 1.93 96 1012.8
20260902055516 19 90 6.4 14.5 1.98 2.03 1.93 95 1013.4
20260902054537 20 90 4.8 11.3 2.01 2.03 1.93 95 1013.3
20260902053524 20 0 6.4 12.9 1.98 2.01 1.91 95 1013.9
20260902052550 20 248 16.1 30.6 1.96 1.98 1.88 95 1015.2
20260902051518 20 203 37.0 57.9 1.63 1.65 1.55 93 1016.5
20260902050539 22 225 25.7 48.3 0.13 0.15 0.05 94 1018.0